Regional Weather Roundup
Issued by NWS

Home | Current Version | Previous Version | Graphics & Text | Print | Product List | Glossary Off
Versions: 1 2 3 4 5 6 7 8 9 10 11 12 13 14 15 16 17 18 19 20 21 22 23 24 25 26 27 28 29 30 31 32 33 34 35 36 37 38 39 40 41 42 43 44 45 46 47 48 49 50

000
ASUS43 KTOP 221408
RWRKS

WEATHER ROUNDUP FOR KANSAS
NATIONAL WEATHER SERVICE GOODLAND KS
900 AM CDT FRI SEP 22 2017

NOTE:  "FAIR" INDICATES FEW OR NO CLOUDS BELOW 12,000 FEET WITH NO
SIGNIFICANT WEATHER AND/OR OBSTRUCTIONS TO VISIBILITY.

KSZ001>006-013>018-027>032-041>047-221500-
NORTHWEST KANSAS

CITY           SKY/WX    TMP DP  RH WIND       PRES   REMARKS
GOODLAND       SUNNY     69  54  58 S17       29.79R
HAYS           MOSUNNY   78  65  63 S21       29.83R
HILL CITY      SUNNY     78  65  63 S17G25    29.79R
RUSSELL        SUNNY     77  66  68 S18       29.82R
$$

KSZ061>065-074>080-084>089-221500-
SOUTHWEST KANSAS

CITY           SKY/WX    TMP DP  RH WIND       PRES   REMARKS
DODGE CITY     SUNNY     76  63  64 S18       29.88R
GARDEN CITY    MOSUNNY   75  61  61 S21G28    29.86R
GREAT BEND     SUNNY     76  67  73 S20       29.86R
LIBERAL        MOSUNNY   73  63  70 S15       29.90R
PRATT          SUNNY     74  65  74 S15       29.89R
$$

KSZ066>073-081>083-090>101-221500-
SOUTHEAST KANSAS

CITY           SKY/WX    TMP DP  RH WIND       PRES   REMARKS
CHANUTE        SUNNY     76  70  82 S14       29.98R
COFFEYVILLE    SUNNY     75  70  84 S12       29.98R
HUTCHINSON     SUNNY     75  70  84 S17       29.89R
MEDICINE LODGE   N/A     75  67  76 SE12G18   29.89R
NEWTON         SUNNY     75  69  81 S15       29.93R
WICHITA INTL   MOSUNNY   76  70  82 S15       29.91R
WICHITA JABRA  SUNNY     76  71  85 S14       29.91S
WICHITA MCCONL MOSUNNY   76  68  74 S18       29.92R
WINFIELD       SUNNY     75  71  87 S13       29.95R
$$

KSZ007>012-019>026-033>040-048>060-102>105-221500-
NORTHEAST KANSAS

CITY           SKY/WX    TMP DP  RH WIND       PRES   REMARKS
CONCORDIA      SUNNY     77  69  76 S20G31    29.83S
EMPORIA        SUNNY     75  69  81 S14G23    29.94R
LAWRENCE       SUNNY     77  71  82 SE14      29.95R
MANHATTAN      SUNNY     79  70  74 S10       29.88S
MARYSVILLE     SUNNY     77  70  78 S13       29.88R
OLATHE IND     SUNNY     76  70  82 S15G22    29.98R
OLATHE EXE     SUNNY     74  71  91 S13       29.99R
SALINA         SUNNY     79  68  69 S16G32    29.86R
TOPEKA BILLARD SUNNY     78  72  81 S9        29.93R
TOPEKA FORBES  SUNNY     78  72  81 S16G24    29.93R
$$




USA.gov is the U.S. government's official web portal to all federal, state and local government web resources and services.